Madisonville, KY

3:39 AM CST on December 07, 2019 (GMT -0600)
Madisonville

Weather History for K2I0 - October, 2019

Change the Weather History Date:

Tuesday, October 29, 2019

  Actual Average (WUND) Record (WUND)
Temperature  
Mean Temperature 56 °F -  
Max Temperature 61 °F - - (-1)
Min Temperature 52 °F - - (-1)
Degree Days  
Heating Degree Days 8    
Growing Degree Days 6 (Base 50)    
Moisture  
Dew Point 49 °F    
Average Humidity 73    
Maximum Humidity 86    
Minimum Humidity 62    
Precipitation  
Precipitation 0.00 in - - ()
Sea Level Pressure  
Sea Level Pressure 30.15 in    
Wind  
Wind Speed 3 mph ()    
Max Wind Speed 10 mph    
Max Gust Speed -    
Visibility 9.8 miles    
Events      
Averages and records for this station are not official NWS values.
T = Trace of Precipitation, MM = Missing Value Source: Averaged Metar Reports

Daily Weather History Graph

Daily Weather History Graph

Search for Another Location

Airport or City:

Astronomy

Oct. 29, 2019 Rise Set
Actual Time 7:10 AM CDT 5:55 PM CDT
Civil Twilight 6:44 AM CDT 6:21 PM CDT
Nautical Twilight 6:13 AM CDT 6:52 PM CDT
Astronomical Twilight 5:43 AM CDT 7:22 PM CDT
Moon 8:42 AM CDT (10/29) 7:20 PM CDT (10/29)
Length of Visible Light 11h 37m
Length of Day
10h 44m
Waxing Crescent, 3% of the Moon is Illuminated
Oct 29
Waxing Crescent
Nov 4
First Quarter
Nov 12
Full
Nov 19
Last Quarter
Nov 26
New

Hourly Weather History & Observations

Time (CDT) Temp. Dew Point Humidity Pressure Visibility Wind Dir Wind Speed Gust Speed Precip Events Conditions
12:15 AM 55.8 °F 48.9 °F 78% 30.08 in 10.0 mi West 4.6 mph - N/A   Overcast
12:35 AM 56.7 °F 49.1 °F 76% 30.08 in 10.0 mi WSW 4.6 mph - N/A   Overcast
12:55 AM 56.7 °F 49.3 °F 76% 30.07 in 10.0 mi SW 3.5 mph - N/A   Overcast
1:15 AM 56.7 °F 49.1 °F 76% 30.08 in 10.0 mi Calm Calm - N/A   Overcast
1:35 AM 56.7 °F 49.1 °F 76% 30.08 in 10.0 mi SSW 3.5 mph - N/A   Overcast
1:55 AM 56.5 °F 49.3 °F 77% 30.07 in 10.0 mi South 3.5 mph - N/A   Overcast
2:15 AM 56.5 °F 49.3 °F 77% 30.08 in 10.0 mi Calm Calm - N/A   Overcast
2:35 AM 56.3 °F 49.5 °F 78% 30.09 in 10.0 mi WSW 3.5 mph - N/A   Overcast
2:55 AM 56.3 °F 49.8 °F 79% 30.09 in 10.0 mi WSW 3.5 mph - N/A   Overcast
3:15 AM 56.3 °F 49.6 °F 78% 30.07 in 10.0 mi SSE 4.6 mph - N/A   Overcast
3:35 AM 56.3 °F 49.6 °F 78% 30.08 in 10.0 mi Calm Calm - N/A   Overcast
4:15 AM 56.3 °F 49.6 °F 78% 30.07 in 10.0 mi SSW 4.6 mph - N/A   Overcast
4:35 AM 56.5 °F 49.1 °F 76% 30.08 in 10.0 mi SSW 5.8 mph - N/A   Overcast
5:15 AM 56.5 °F 48.7 °F 75% 30.10 in 10.0 mi WSW 8.1 mph - N/A   Overcast
5:35 AM 56.5 °F 48.4 °F 74% 30.11 in 10.0 mi WSW 5.8 mph - N/A   Overcast
5:55 AM 56.7 °F 48.4 °F 74% 30.12 in 10.0 mi WSW 4.6 mph - N/A   Overcast
6:15 AM 56.5 °F 48.4 °F 74% 30.11 in 10.0 mi SSW 4.6 mph - N/A   Overcast
6:35 AM 56.5 °F 48.6 °F 75% 30.13 in 10.0 mi SW 3.5 mph - N/A   Overcast
6:55 AM 56.5 °F 48.6 °F 75% 30.13 in 10.0 mi Calm Calm - N/A   Overcast
7:15 AM 56.3 °F 48.7 °F 76% 30.14 in 10.0 mi Calm Calm - N/A   Overcast
7:35 AM 56.5 °F 48.9 °F 76% 30.14 in 10.0 mi Calm Calm - N/A   Overcast
7:55 AM 56.7 °F 49.1 °F 76% 30.15 in 10.0 mi Calm Calm - N/A   Overcast
8:15 AM 57.2 °F 49.1 °F 74% 30.16 in 10.0 mi SSW 3.5 mph - N/A   Overcast
8:35 AM 57.7 °F 49.3 °F 73% 30.17 in 10.0 mi SW 4.6 mph - N/A   Overcast
8:55 AM 58.3 °F 49.1 °F 71% 30.18 in 10.0 mi SW 4.6 mph - N/A   Overcast
9:15 AM 58.5 °F 48.7 °F 70% 30.19 in 10.0 mi West 5.8 mph - N/A   Overcast
9:35 AM 58.6 °F 48.2 °F 68% 30.20 in 10.0 mi West 10.4 mph - N/A   Overcast
9:55 AM 59.2 °F 48.2 °F 67% 30.19 in 10.0 mi West 6.9 mph - N/A   Overcast
10:15 AM 59.4 °F 48.4 °F 67% 30.19 in 10.0 mi WSW 5.8 mph - N/A   Overcast
10:35 AM 59.4 °F 48.2 °F 67% 30.20 in 10.0 mi West 3.5 mph - N/A   Overcast
10:55 AM 60.1 °F 48.6 °F 66% 30.20 in 10.0 mi West 5.8 mph - N/A   Overcast
11:15 AM 60.4 °F 48.4 °F 64% 30.21 in 10.0 mi West 4.6 mph - N/A   Overcast
11:35 AM 60.6 °F 48.6 °F 64% 30.21 in 10.0 mi Calm Calm - N/A   Overcast
11:55 AM 61.0 °F 48.7 °F 64% 30.20 in 10.0 mi Calm Calm - N/A   Overcast
12:15 PM 61.2 °F 48.7 °F 64% 30.19 in 10.0 mi Calm Calm - N/A   Overcast
12:35 PM 61.3 °F 48.4 °F 62% 30.18 in 10.0 mi Calm Calm - N/A   Overcast
12:55 PM 61.2 °F 48.6 °F 63% 30.18 in 10.0 mi West 3.5 mph - N/A   Overcast
1:15 PM 61.0 °F 48.4 °F 63% 30.17 in 10.0 mi WNW 3.5 mph - N/A   Overcast
1:35 PM 61.0 °F 48.4 °F 63% 30.17 in 10.0 mi Calm Calm - N/A   Overcast
1:55 PM 61.2 °F 48.7 °F 64% 30.18 in 10.0 mi Calm Calm - N/A   Overcast
2:15 PM 61.3 °F 48.6 °F 63% 30.18 in 10.0 mi Calm Calm - N/A   Overcast
2:35 PM 61.3 °F 48.7 °F 63% 30.18 in 10.0 mi NE 3.5 mph - N/A   Overcast
2:55 PM 61.5 °F 48.6 °F 62% 30.18 in 10.0 mi Calm Calm - N/A   Overcast
3:15 PM 61.7 °F 48.6 °F 62% 30.18 in 10.0 mi Calm Calm - N/A   Overcast
3:35 PM 61.7 °F 48.7 °F 62% 30.19 in 10.0 mi Calm Calm - N/A   Overcast
3:55 PM 61.7 °F 48.4 °F 62% 30.19 in 10.0 mi Calm Calm - N/A   Overcast
4:35 PM 61.7 °F 48.4 °F 62% 30.19 in 10.0 mi Calm Calm - N/A   Overcast
4:55 PM 61.9 °F 48.6 °F 62% 30.18 in 10.0 mi Calm Calm - N/A   Overcast
5:15 PM 60.3 °F 50.9 °F 71% 30.18 in 10.0 mi NNE 3.5 mph - N/A   Overcast
5:35 PM 59.9 °F 51.1 °F 73% 30.17 in 10.0 mi NE 3.5 mph - N/A   Overcast
5:55 PM 59.4 °F 51.1 °F 74% 30.17 in 10.0 mi NE 3.5 mph - N/A   Overcast
6:15 PM 58.8 °F 50.9 °F 75% 30.16 in 10.0 mi NE 3.5 mph - N/A   Overcast
6:35 PM 58.1 °F 50.5 °F 76% 30.16 in 10.0 mi ESE 3.5 mph - N/A   Overcast
6:55 PM 57.2 °F 49.6 °F 76% 30.16 in 10.0 mi ESE 3.5 mph - N/A   Scattered Clouds
7:15 PM 56.3 °F 49.1 °F 77% 30.16 in 10.0 mi East 3.5 mph - N/A   Clear
7:35 PM 55.6 °F 49.3 °F 79% 30.16 in 10.0 mi Calm Calm - N/A   Clear
7:55 PM 55.8 °F 49.5 °F 79% 30.16 in 10.0 mi ESE 3.5 mph - N/A   Scattered Clouds
8:15 PM 55.8 °F 49.5 °F 79% 30.16 in 10.0 mi Calm Calm - N/A   Mostly Cloudy
8:35 PM 54.1 °F 48.4 °F 81% 30.16 in 10.0 mi NE 3.5 mph - N/A   Mostly Cloudy
8:55 PM 53.1 °F 48.6 °F 85% 30.16 in 10.0 mi Calm Calm - N/A   Mostly Cloudy
9:15 PM 53.6 °F 49.1 °F 85% 30.17 in 10.0 mi Calm Calm - N/A   Overcast
9:35 PM 53.6 °F 48.9 °F 84% 30.17 in 10.0 mi Calm Calm - N/A   Overcast
9:55 PM 53.6 °F 49.1 °F 85% 30.16 in 10.0 mi Calm Calm - N/A   Mostly Cloudy
10:15 PM 52.9 °F 48.9 °F 86% 30.16 in 10.0 mi Calm Calm - N/A   Scattered Clouds
10:35 PM 53.2 °F 48.9 °F 85% 30.16 in 10.0 mi Calm Calm - N/A   Clear
10:55 PM 52.7 °F 48.6 °F 86% 30.17 in 7.0 mi Calm Calm - N/A   Clear
11:15 PM 53.8 °F 49.8 °F 86% 30.15 in 7.0 mi NE 4.6 mph - N/A   Clear
11:35 PM 53.4 °F 48.9 °F 85% 30.14 in 7.0 mi NE 3.5 mph - N/A   Clear
11:55 PM 53.1 °F 48.9 °F 86% 30.14 in 7.0 mi Calm Calm - N/A   Clear